Regional Weather Roundup
Issued by NWS

Home | Current Version | Previous Version | Text Only | Print | Product List | Glossary On
Versions: 1 2 3 4 5 6 7 8 9 10 11 12 13 14 15 16 17 18 19 20 21 22 23 24 25 26 27 28
000
ASUS45 KSLC 220910
RWRUT

UTAH REGIONAL WEATHER ROUNDUP
NATIONAL WEATHER SERVICE SALT LAKE CITY UT
300 AM MDT SUN APR 22 2018

UTZ001>011-023>025-221000-

NORTHERN UTAH

CITY           SKY/WX    TMP DP  RH WIND       PRES   REMARKS
BRIGHAM CITY   CLEAR     46  33  61 CALM      30.15F
HILL AFB       CLEAR     49  27  43 NE15      30.15F
LOGAN          CLEAR     46  34  62 NE3       30.17S
OGDEN          CLEAR     47  29  49 MISG      30.14F
SALT LAKE CITY CLEAR     50  32  50 S8        30.13F
TOOELE VALLEY  CLEAR     45  32  61 S6        30.14S
WENDOVER       CLEAR     50  30  46 NE8       30.12S
HEBER CITY       N/A     32  23  69 E6        30.21S WCI  26

$$

UTZ011>015-024>027-221000-

CENTRAL/NORTHEAST UTAH

CITY           SKY/WX    TMP DP  RH WIND       PRES   REMARKS
PROVO AIRPORT  CLEAR     45  32  60 NW3       30.17S
MOAB/CANYONLAN CLEAR     51  34  52 E5        30.13S
DELTA          CLEAR     41  32  70 SW3       30.16S
PRICE          CLEAR     42  24  49 VRB5      30.18S
ROOSEVELT      CLEAR     39  32  75 W7        30.19S WCI  34
VERNAL         CLEAR     42  32  67 W5        30.17S

$$

UTZ013>016-019>022-027-221000-

SOUTHERN UTAH

CITY           SKY/WX    TMP DP  RH WIND       PRES   REMARKS
BRYCE CANYON   CLEAR     29  22  75 W7        30.27F WCI  22
CEDAR CITY     CLEAR     39  31  72 NE3       30.17S
MILFORD        CLEAR     39  36  89 S3        30.16S
ST GEORGE      SUNNY     58  24  27 E8        30.05F
HANKSVILLE     CLEAR     43  21  42 CALM      30.15S
BLANDING         N/A     47  25  41 N8        30.25S

$$

REGIONAL REPORTS     COLORADO/ARIZONA

CITY           SKY/WX    TMP DP  RH WIND       PRES   REMARKS
CRAIG, CO      CLEAR     32  29  88 CALM      30.22S
GRAND JUNCTION CLEAR     46  35  65 SE12      30.19R
RIFLE, CO      CLEAR     37  34  89 CALM      30.25R
MONTROSE, CO   CLEAR     38  30  73 S9        30.25S WCI  31
CORTEZ, CO     CLEAR     35  23  61 E6        30.20F WCI  30
COLORADO CITY    N/A     43  28  56 S5        30.16F
PAGE, AZ       CLEAR     57  30  35 SW3       30.11S
GRAND CANYON   PTCLDY    29  22  75 NE6       30.21F WCI  23
KINGMAN, AZ    MOCLDY    58  22  24 SW3       30.04F
FLAGSTAFF, AZ  CLEAR     29  17  61 CALM      30.22F

$$

REGIONAL REPORTS    NEVADA/IDAHO/WYOMING

CITY           SKY/WX    TMP DP  RH WIND       PRES   REMARKS
LAS VEGAS, NV  MOCLDY    68  27  21 S6        29.98F
ELY, NY        CLEAR     35  19  52 S13       30.20F WCI  26
ELKO, NV       CLEAR     40  31  70 CALM      30.14F
POCATELLO, ID  CLEAR     52  28  39 S12       30.14F
BURLEY, ID     CLEAR     42  32  67 SW9       30.12F
FORT BRIDGER,    N/A     42  26  53 W7        30.27F
EVANSTON, WY   CLEAR     39  23  52 SE7       30.25S WCI  34
ROCK SPRINGS,  CLEAR     41  26  55 W13       30.21S
KEMMERER, WY   CLEAR     36  27  69 NW6       30.25S WCI  31

$$




USA.gov is the U.S. government's official web portal to all federal, state and local government web resources and services.